Weather History for Sydney Airport, New South Wales

Change the Weather History Date:

Friday, December 13, 2013

  Actual Average Record
Temperature  
Mean Temperature 74 °F -  
Max Temperature 82 °F 79 °F - ()
Min Temperature 66 °F 64 °F - ()
Cooling Degree Days 9    
Growing Degree Days 24 (Base 50)    
Moisture  
Dew Point 64 °F    
Average Humidity 66    
Maximum Humidity 88    
Minimum Humidity 42    
Precipitation  
Precipitation 0.00 in 0.13 in - ()
Sea Level Pressure  
Sea Level Pressure 29.85 in    
Wind  
Wind Speed 11 mph ()    
Max Wind Speed 26 mph    
Max Gust Speed 34 mph    
Visibility 7.7 miles    
Events      
T = Trace of Precipitation, MM = Missing Value Source: Averaged Metar Reports

Daily Weather History Graph

Daily Weather History Graph

Search for Another Location

Airport:

Trip Planner

Search our weather history database for the weather conditions in past years. The results will help you decide how hot, cold, wet, or windy it might be!

Date:

Astronomy

Dec. 13, 2013 Rise Set
Actual Time 5:37 AM AEDT 8:01 PM AEDT
Civil Twilight 5:08 AM AEDT 8:30 PM AEDT
Nautical Twilight 4:33 AM AEDT 9:05 PM AEDT
Astronomical Twilight 3:53 AM AEDT 9:45 PM AEDT
Moon 4:12 PM AEDT (12/13) 2:38 AM AEDT (12/13)
Length of Visible Light 15h 21m
Length of Day
14h 23m
Waxing Gibbous, 83% of the Moon is Illuminated
Dec 13
Waxing Gibbous
Dec 17
Full
Dec 26
Last Quarter
Jan 1
New
Jan 8
First Quarter

Hourly Weather History & Observations

Time (AEDT) Temp. Heat Index Dew Point Humidity Pressure Visibility Wind Dir Wind Speed Gust Speed Precip Events Conditions
12:00 AM 72 °F - 63 °F 66% 29.87 in 16 mi NNE 12.7 mph - -   Partly Cloudy
12:00 AM 71.6 °F - 62.6 °F 73% 29.86 in 6.2 mi NNE 12.7 mph - N/A   Partly Cloudy
12:30 AM 71.6 °F - 62.6 °F 73% 29.86 in 6.2 mi NNE 11.5 mph - N/A   Partly Cloudy
1:00 AM 71 °F - 64 °F 71% 29.86 in - NNE 11.5 mph - -  
1:00 AM 71.6 °F - 64.4 °F 78% 29.86 in 6.2 mi NNE 11.5 mph - N/A   Partly Cloudy
1:30 AM 71.6 °F - 64.4 °F 78% 29.86 in 6.2 mi NNE 10.4 mph - N/A   Partly Cloudy
2:00 AM 71 °F - 64 °F 72% 29.86 in - NNE 8.1 mph - -  
2:00 AM 69.8 °F - 64.4 °F 83% 29.83 in 6.2 mi NNE 8.1 mph - N/A   Partly Cloudy
2:30 AM 69.8 °F - 64.4 °F 83% 29.83 in 6.2 mi NNE 8.1 mph - N/A   Partly Cloudy
3:00 AM 69 °F - 64 °F 77% 29.85 in 16 mi NNE 6.9 mph - -   Haze
3:30 AM 69.8 °F - 64.4 °F 83% 29.83 in - NNE 4.6 mph - N/A   Clear
4:00 AM 69 °F - 63 °F 77% 29.85 in - North 8.1 mph - -  
4:30 AM 69.8 °F - 62.6 °F 78% 29.83 in - North 5.8 mph - N/A   Clear
5:00 AM 67 °F - 63 °F 84% 29.86 in - WNW 4.6 mph - -  
5:00 AM 68.0 °F - 62.6 °F 83% 29.86 in 6.2 mi WNW 4.6 mph - N/A   Partly Cloudy
5:30 AM 66.2 °F - 62.6 °F 88% 29.86 in 6.2 mi NW 4.6 mph - N/A   Partly Cloudy
6:00 AM 68 °F - 63 °F 79% 29.87 in 11 mi WNW 5.8 mph - -   Haze
6:00 AM 68.0 °F - 62.6 °F 83% 29.86 in - WNW 5.8 mph - N/A   Clear
6:30 AM 68.0 °F - 62.6 °F 83% 29.86 in - WNW 5.8 mph - N/A   Clear
7:00 AM 69 °F - 63 °F 75% 29.89 in - WNW 4.6 mph - -  
7:00 AM 69.8 °F - 62.6 °F 78% 29.89 in 6.2 mi WNW 4.6 mph - N/A   Partly Cloudy
7:30 AM 73.4 °F - 62.6 °F 69% 29.89 in 6.2 mi NW 5.8 mph - N/A   Partly Cloudy
8:00 AM 73 °F - 63 °F 63% 29.90 in - West 5.8 mph - -  
8:00 AM 73.4 °F - 62.6 °F 69% 29.89 in 6.2 mi West 5.8 mph - N/A   Partly Cloudy
8:30 AM 75.2 °F - 62.6 °F 65% 29.89 in 6.2 mi West 5.8 mph - N/A   Partly Cloudy
9:00 AM 73 °F - 63 °F 64% 29.90 in 14 mi West 5.8 mph - -   Haze
9:00 AM 73.4 °F - 62.6 °F 69% 29.89 in 6.2 mi West 5.8 mph - N/A   Partly Cloudy
9:30 AM 73.4 °F - 62.6 °F 69% 29.89 in 6.2 mi South 9.2 mph - N/A   Partly Cloudy
10:00 AM 74 °F - 65 °F 65% 29.90 in - South 9.2 mph - -  
10:00 AM 75.2 °F - 64.4 °F 69% 29.89 in 6.2 mi South 9.2 mph - N/A   Partly Cloudy
10:30 AM 75.2 °F - 66.2 °F 73% 29.89 in 6.2 mi East 6.9 mph - N/A   Partly Cloudy
11:00 AM 79 °F - 63 °F 48% 29.89 in - ESE 9.2 mph - -  
11:00 AM 78.8 °F - 62.6 °F 57% 29.89 in 6.2 mi ESE 9.2 mph - N/A   Partly Cloudy
11:30 AM 78.8 °F - 62.6 °F 57% 29.89 in 6.2 mi ESE 10.4 mph - N/A   Partly Cloudy
12:00 PM 80 °F - 61 °F 42% 29.89 in 19 mi ESE 10.4 mph - -   Partly Cloudy
12:00 PM 80.6 °F 81.5 °F 60.8 °F 51% 29.89 in 6.2 mi ESE 10.4 mph - N/A   Partly Cloudy
12:30 PM 80.6 °F 81.5 °F 60.8 °F 51% 29.86 in 6.2 mi East 10.4 mph - N/A   Partly Cloudy
1:00 PM 79 °F - 60 °F 42% 29.87 in - East 12.7 mph - -  
1:00 PM 78.8 °F - 60.8 °F 54% 29.86 in 6.2 mi East 12.7 mph - N/A   Partly Cloudy
1:30 PM 80.6 °F 81.5 °F 60.8 °F 51% 29.83 in 6.2 mi ENE 17.3 mph - N/A   Partly Cloudy
2:00 PM 80 °F - 63 °F 46% 29.84 in - ENE 19.6 mph - -  
2:00 PM 80.6 °F 81.8 °F 62.6 °F 54% 29.83 in 6.2 mi ENE 19.6 mph - N/A   Partly Cloudy
2:30 PM 80.6 °F 81.5 °F 60.8 °F 51% 29.83 in 6.2 mi NE 20.7 mph - N/A   Partly Cloudy
2:47 PM 82.4 °F 83.4 °F 62.6 °F 51% 29.80 in 6.2 mi ENE 20.7 mph 32.2 mph N/A   Partly Cloudy
3:00 PM 81 °F - 62 °F 43% 29.83 in 16 mi ENE 20.7 mph - -   Haze
3:00 PM 80.6 °F 81.8 °F 62.6 °F 54% 29.80 in 6.2 mi ENE 20.7 mph - N/A   Partly Cloudy
3:30 PM 82.4 °F 83.4 °F 62.6 °F 51% 29.80 in 6.2 mi ENE 18.4 mph - N/A   Partly Cloudy
4:00 PM 81 °F - 64 °F 46% 29.81 in - NE 20.7 mph - -  
4:00 PM 80.6 °F 82.3 °F 64.4 °F 58% 29.80 in 6.2 mi NE 20.7 mph - N/A   Partly Cloudy
4:30 PM 82.4 °F 83.9 °F 64.4 °F 54% 29.80 in 6.2 mi NE 24.2 mph - N/A   Partly Cloudy
5:00 PM 81 °F - 64 °F 46% 29.80 in - NE 25.3 mph - -  
5:00 PM 80.6 °F 82.3 °F 64.4 °F 58% 29.77 in 6.2 mi NE 25.3 mph - N/A   Partly Cloudy
5:30 PM 78.8 °F - 66.2 °F 65% 29.77 in 6.2 mi NE 26.5 mph - N/A   Partly Cloudy
6:00 PM 80 °F - 66 °F 54% 29.80 in 16 mi NE 23.0 mph - -   Partly Cloudy
6:02 PM 78.8 °F - 66.2 °F 65% 29.77 in 6.2 mi NE 23.0 mph 34.5 mph N/A   Partly Cloudy
6:30 PM 77.0 °F - 66.2 °F 69% 29.80 in 6.2 mi NNE 23.0 mph - N/A   Scattered Clouds
7:00 PM 76 °F - 67 °F 66% 29.83 in - NNE 20.7 mph - -  
7:00 PM 77.0 °F - 66.2 °F 69% 29.83 in 6.2 mi NNE 20.7 mph - N/A   Partly Cloudy
7:30 PM 77.0 °F - 66.2 °F 69% 29.83 in 6.2 mi NNE 18.4 mph - N/A   Mostly Cloudy
8:00 PM 75 °F - 67 °F 69% 29.86 in - NNE 17.3 mph - -  
8:00 PM 75.2 °F - 66.2 °F 73% 29.86 in 6.2 mi NNE 17.3 mph - N/A   Mostly Cloudy
8:30 PM 75.2 °F - 66.2 °F 73% 29.86 in 6.2 mi NNE 18.4 mph - N/A   Mostly Cloudy
9:00 PM 74 °F - 67 °F 71% 29.88 in 16 mi NNE 18.4 mph - -   Partly Cloudy
9:00 PM 75.2 °F - 66.2 °F 73% 29.86 in 6.2 mi NNE 18.4 mph - N/A   Mostly Cloudy
9:30 PM 75.2 °F - 66.2 °F 73% 29.86 in 6.2 mi NE 15.0 mph - N/A   Mostly Cloudy
10:00 PM 75 °F - 67 °F 68% 29.89 in - NNE 15.0 mph - -  
10:00 PM 75.2 °F - 66.2 °F 73% 29.89 in 6.2 mi NNE 15.0 mph - N/A   Mostly Cloudy
10:30 PM 73.4 °F - 66.2 °F 78% 29.86 in 6.2 mi NNE 11.5 mph - N/A   Mostly Cloudy
11:00 PM 74 °F - 67 °F 72% 29.88 in - NNE 10.4 mph - -  
11:00 PM 73.4 °F - 66.2 °F 78% 29.86 in 6.2 mi NNE 10.4 mph - N/A   Mostly Cloudy
11:30 PM 73.4 °F - 66.2 °F 78% 29.86 in 6.2 mi NNE 12.7 mph - N/A   Mostly Cloudy